Location: ??????????
(54.7560°N, 39.1389°E)
Time: 02:21:03
(UTC+00:00)

Cosmos-2242 - Pass Details

Date: 19 May 2025
Orbit: 569 x 594 km, 82.5° (Epoch: 14 June)

Event Time Altitude Azimuth Distance (km) Brightness Sun altitude
Exits shadow 18:14:51 -1° 177° (S) 2,885 6.0 -5.5°
Rises 18:15:00 0° 177° (S) 2,827 6.0 -5.5°
Reaches altitude 10° 18:17:13 10° 173° (S) 1,929 5.1 -5.8°
Maximum altitude 18:21:23 55° 96° (E) 720 3.2 -6.2°
Drops below altitude 10° 18:25:34 10° 19° (NNE) 1,938 6.0 -6.6°
Sets 18:27:48 0° 15° (NNE) 2,842 7.0 -6.8°
